User: anonymous   Login
Location: Kawakawa
(35.3830°S, 174.0670°E)
Time: 06:34:46
(UTC+13:00)
Language:

CZ-2D R/B - Orbit

View from above orbital plane
View from above orbital plane
View from above satellite
View from above satellite

Ground track
Ground track

The orbit data is extracted from the following two-line orbital elements,

1 28738U 05024B   19082.80754909 +.00000156 +00000-0 +12813-4 0  9992
2 28738 097.4245 114.2758 0010682 307.9850 052.0416 15.11748672753160
Epoch (UTC): 23 March 2019 19:22:52
Eccentricity: 0.0010682
inclination: 97.4245°
perigee height: 523 km
apogee height: 538 km
right ascension of ascending node: 114.2758°
argument of perigee: 307.9850°
revolutions per day: 15.11748672
mean anomaly at epoch: 52.0416°
orbit number at epoch: 75316

The dashed part of the orbit path shows where the satellite is in the earth's shadow,  

DLR